{"data":{"norad_id":63109,"epoch":"2026-05-24T10:06:12.327264Z","epoch_age_seconds":129032,"freshness":"FRESH","line1":"1 63109U 25039F   26144.42097601  .00075504  00000+0  58665-3 0  9997","line2":"2 63109  43.0019 140.5743 0001539 275.1816  84.8876 15.70837189 71525","mean_motion":15.70837189,"eccentricity":0.0001539,"inclination_deg":43.0019,"raan_deg":140.5743,"arg_perigee_deg":275.1816,"mean_anomaly_deg":84.8876,"bstar":0.00058665,"rev_number":7152,"period_min":91.670862523742,"perigee_km":355.46663483387,"apogee_km":357.5395570554,"semimajor_km":6734.6400959446,"source":"CELESTRAK","updated_at":"2026-05-25T13:38:19.883010Z"}}